This is the latest recevied weather packets stored in our database for station/object KA8DUX-2. If no packets are shown the sender has not sent any weather packets the latest 10 day(s).
| Time | Temp. | Humidity | Pressure | Rain* | Wind** | Luminosity | Snow |
|---|---|---|---|---|---|---|---|
| 1778259038 | 17.78° C | 29% | 1009 hPa | 0 mm | - | 653 W/m² | - |
| 1778258734 | 16.67° C | 29% | 1009.2 hPa | 0 mm | - | 689 W/m² | - |
| 1778258431 | 17.22° C | 30% | 1009.1 hPa | 0 mm | - | 662 W/m² | - |
| 1778258129 | 17.22° C | 32% | 1009.3 hPa | 0 mm | - | 697 W/m² | - |
| 1778257825 | 17.22° C | 32% | 1009.4 hPa | 0 mm | - | 745 W/m² | - |
| 1778257522 | 17.22° C | 36% | 1009.5 hPa | 0 mm | - | 736 W/m² | - |
| 1778257220 | 16.67° C | 34% | 1009.5 hPa | 0 mm | - | 701 W/m² | - |
| 1778256916 | 16.67° C | 32% | 1009.4 hPa | 0 mm | - | 714 W/m² | - |
| 1778256613 | 17.78° C | 33% | 1009.4 hPa | 0 mm | - | 663 W/m² | - |
| 1778256312 | 18.33° C | 32% | 1009.5 hPa | 0 mm | - | 698 W/m² | - |
| 1778256008 | 17.78° C | 32% | 1009.4 hPa | 0 mm | - | 705 W/m² | - |
| 1778255705 | 17.22° C | 34% | 1009.4 hPa | 0 mm | - | 703 W/m² | - |
| 1778255402 | 16.67° C | 35% | 1009.5 hPa | 0 mm | - | 731 W/m² | - |
| 1778255100 | 15.56° C | 38% | 1009.4 hPa | 0 mm | - | 768 W/m² | - |
| 1778254796 | 16.11° C | 36% | 1009.6 hPa | 0 mm | - | 819 W/m² | - |
| 1778254493 | 16.11° C | 34% | 1009.6 hPa | 0 mm | - | 791 W/m² | - |
| 1778254189 | 16.11° C | 36% | 1009.6 hPa | 0 mm | - | 762 W/m² | - |
| 1778253886 | 16.67° C | 39% | 1009.5 hPa | 0 mm | - | 769 W/m² | - |
| 1778253582 | 15.56° C | 41% | 1009.6 hPa | 0 mm | - | 789 W/m² | - |
| 1778253279 | 15.56° C | 41% | 1009.5 hPa | 0 mm | - | 743 W/m² | - |
| 1778252976 | 15.56° C | 39% | 1009.7 hPa | 0 mm | - | 737 W/m² | - |
| 1778252672 | 15° C | 43% | 1009.9 hPa | 0 mm | - | 699 W/m² | - |
| 1778252368 | 15.56° C | 41% | 1009.9 hPa | 0 mm | - | 684 W/m² | - |
| 1778252065 | 15.56° C | 42% | 1009.9 hPa | 0 mm | - | 738 W/m² | - |
| 1778251761 | 15.56° C | 41% | 1009.9 hPa | 0 mm | - | 719 W/m² | - |
* Rain latest hour (hover to see other rain measurements)
** Current wind speed in m/s (hover to see current wind gust speed)